Time,TemperatureF,DewpointF,PressureIn,WindDirection,WindDirectionDegrees,WindSpeedMPH,WindSpeedGustMPH,Humidity,HourlyPrecipIn,Conditions,Clouds,dailyrainin,SolarRadiationWatts/m^2,SoftwareType,DateUTC
2013-09-02 00:01:00,79.7,76.2,29.91,SW,223,0.4,6.9,89,0.00,CLR,OVC,0.00,0.0,WeatherDisplay:10.37,2013-09-02 04:01:00,
2013-09-02 00:02:00,79.7,76.2,29.91,SSW,207,1.7,2.3,89,0.00,CLR,OVC,0.00,0.0,WeatherDisplay:10.37,2013-09-02 04:02:00,
2013-09-02 00:03:00,79.7,76.2,29.91,SW,229,1.8,5.8,89,0.00,CLR,OVC,0.00,0.0,WeatherDisplay:10.37,2013-09-02 04:03:00,
2013-09-02 00:08:00,79.7,76.2,29.91,SSE,166,4.7,8.1,89,0.00,CLR,OVC,0.00,0.0,WeatherDisplay:10.37,2013-09-02 04:08:00,
2013-09-02 00:13:00,79.7,76.2,29.91,SW,225,3.0,6.9,89,0.00,CLR,OVC,0.00,0.0,WeatherDisplay:10.37,2013-09-02 04:13:00,
2013-09-02 00:18:00,79.6,76.1,29.91,SSW,207,2.9,11.5,89,0.00,CLR,OVC,0.00,0.0,WeatherDisplay:10.37,2013-09-02 04:18:00,
2013-09-02 00:23:00,79.6,76.1,29.91,WSW,240,3.3,6.9,89,0.00,CLR,OVC,0.00,0.0,WeatherDisplay:10.37,2013-09-02 04:23:00,
2013-09-02 00:28:00,79.6,76.1,29.91,South,178,6.5,13.0,89,0.00,CLR,OVC,0.00,0.0,WeatherDisplay:10.37,2013-09-02 04:28:00,
2013-09-02 00:33:00,79.6,76.1,29.91,SSW,201,4.4,6.9,89,0.00,CLR,OVC,0.00,0.0,WeatherDisplay:10.37,2013-09-02 04:33:00,
2013-09-02 00:38:00,79.6,76.1,29.91,South,169,6.2,6.9,89,0.00,CLR,OVC,0.00,0.0,WeatherDisplay:10.37,2013-09-02 04:38:00,
2013-09-02 00:43:00,79.6,76.1,29.91,SW,215,3.8,9.2,89,0.00,CLR,OVC,0.00,0.0,WeatherDisplay:10.37,2013-09-02 04:43:00,
2013-09-02 00:48:00,79.6,76.1,29.91,SW,227,4.4,5.0,89,0.00,CLR,OVC,0.00,0.0,WeatherDisplay:10.37,2013-09-02 04:48:00,
2013-09-02 00:53:00,79.6,76.1,29.91,SW,232,4.6,6.9,89,0.00,CLR,OVC,0.00,0.0,WeatherDisplay:10.37,2013-09-02 04:53:00,
2013-09-02 00:58:00,79.5,76.0,29.91,SW,231,3.9,5.8,89,0.00,CLR,OVC,0.00,0.0,WeatherDisplay:10.37,2013-09-02 04:58:00,
2013-09-02 01:03:00,79.5,76.0,29.91,SSW,210,6.7,10.4,89,0.00,CLR,OVC,0.00,0.0,WeatherDisplay:10.37,2013-09-02 05:03:00,
2013-09-02 01:08:00,79.6,76.1,29.91,SW,231,1.2,4.6,89,0.00,CLR,OVC,0.00,0.0,WeatherDisplay:10.37,2013-09-02 05:08:00,
2013-09-02 01:13:00,79.6,76.1,29.91,WSW,248,2.1,5.8,89,0.00,CLR,OVC,0.00,0.0,WeatherDisplay:10.37,2013-09-02 05:13:00,
2013-09-02 01:18:00,79.6,76.1,29.91,WSW,246,1.1,3.5,89,0.00,CLR,OVC,0.00,0.0,WeatherDisplay:10.37,2013-09-02 05:18:00,
2013-09-02 01:23:00,79.6,76.1,29.91,WSW,238,1.7,4.6,89,0.00,CLR,OVC,0.00,0.0,WeatherDisplay:10.37,2013-09-02 05:23:00,
2013-09-02 01:28:00,79.6,76.1,29.91,SW,227,0.5,2.3,89,0.00,CLR,OVC,0.00,0.0,WeatherDisplay:10.37,2013-09-02 05:28:00,
2013-09-02 01:33:00,79.5,76.0,29.91,SW,226,0.3,2.3,89,0.00,CLR,OVC,0.00,0.0,WeatherDisplay:10.37,2013-09-02 05:33:00,
2013-09-02 01:38:00,79.5,76.0,29.90,SW,226,0.6,2.3,89,0.00,CLR,OVC,0.00,0.0,WeatherDisplay:10.37,2013-09-02 05:38:00,
2013-09-02 01:43:00,79.4,75.9,29.90,SW,226,0.0,0.0,89,0.00,CLR,OVC,0.00,0.0,WeatherDisplay:10.37,2013-09-02 05:43:00,
2013-09-02 01:48:00,79.4,75.9,29.90,SW,226,0.0,0.0,89,0.00,CLR,OVC,0.00,0.0,WeatherDisplay:10.37,2013-09-02 05:48:00,
2013-09-02 01:53:00,79.3,76.1,29.90,SW,227,0.0,0.0,90,0.00,CLR,OVC,0.00,0.0,WeatherDisplay:10.37,2013-09-02 05:53:00,
2013-09-02 01:58:00,79.2,76.0,29.90,SW,221,2.4,3.5,90,0.00,CLR,OVC,0.00,0.0,WeatherDisplay:10.37,2013-09-02 05:58:00,
2013-09-02 02:03:00,79.1,75.9,29.90,SW,223,0.5,2.3,90,0.00,CLR,OVC,0.00,0.0,WeatherDisplay:10.37,2013-09-02 06:03:00,
2013-09-02 02:08:00,79.0,75.8,29.90,SSW,207,1.8,3.5,90,0.00,CLR,OVC,0.00,0.0,WeatherDisplay:10.37,2013-09-02 06:08:00,
2013-09-02 02:13:00,78.9,75.7,29.90,SSW,198,1.7,3.5,90,0.00,CLR,OVC,0.00,0.0,WeatherDisplay:10.37,2013-09-02 06:13:00,
2013-09-02 02:19:00,79.0,75.8,29.89,SW,224,2.1,3.5,90,0.00,CLR,OVC,0.00,0.0,WeatherDisplay:10.37,2013-09-02 06:19:00,
2013-09-02 02:24:00,78.9,75.7,29.89,South,171,2.1,3.5,90,0.00,CLR,OVC,0.00,0.0,WeatherDisplay:10.37,2013-09-02 06:24:00,
2013-09-02 02:29:00,79.0,75.8,29.89,SSW,210,2.5,11.5,90,0.00,CLR,OVC,0.00,0.0,WeatherDisplay:10.37,2013-09-02 06:29:00,
2013-09-02 02:34:00,79.0,75.8,29.88,SSW,211,1.5,3.0,90,0.00,CLR,OVC,0.00,0.0,WeatherDisplay:10.37,2013-09-02 06:34:00,
2013-09-02 02:39:00,79.0,75.8,29.88,SSW,212,1.4,3.0,90,0.00,CLR,OVC,0.00,0.0,WeatherDisplay:10.37,2013-09-02 06:39:00,
2013-09-02 02:44:00,79.0,75.8,29.88,SW,221,3.0,4.0,90,0.00,CLR,OVC,0.00,0.0,WeatherDisplay:10.37,2013-09-02 06:44:00,
2013-09-02 02:49:00,79.0,75.8,29.88,SW,222,2.6,8.1,90,0.00,CLR,OVC,0.00,0.0,WeatherDisplay:10.37,2013-09-02 06:49:00,
2013-09-02 02:54:00,79.1,75.6,29.88,SW,215,2.2,6.9,89,0.00,CLR,OVC,0.00,0.0,WeatherDisplay:10.37,2013-09-02 06:54:00,
2013-09-02 02:59:00,79.2,75.7,29.88,South,173,4.4,8.1,89,0.00,CLR,OVC,0.00,0.0,WeatherDisplay:10.37,2013-09-02 06:59:00,
2013-09-02 03:04:00,79.3,75.8,29.88,SW,227,3.8,7.0,89,0.00,CLR,OVC,0.00,0.0,WeatherDisplay:10.37,2013-09-02 07:04:00,
2013-09-02 03:09:00,79.3,75.8,29.87,South,188,4.1,5.8,89,0.00,CLR,OVC,0.00,0.0,WeatherDisplay:10.37,2013-09-02 07:09:00,
2013-09-02 03:14:00,79.3,75.8,29.88,SW,221,3.0,5.8,89,0.00,CLR,OVC,0.00,0.0,WeatherDisplay:10.37,2013-09-02 07:14:00,
2013-09-02 03:19:00,79.3,75.8,29.88,SSW,194,2.3,5.0,89,0.00,CLR,OVC,0.00,0.0,WeatherDisplay:10.37,2013-09-02 07:19:00,
2013-09-02 03:24:00,79.3,75.8,29.88,South,188,2.2,3.5,89,0.00,CLR,OVC,0.00,0.0,WeatherDisplay:10.37,2013-09-02 07:24:00,
2013-09-02 03:29:00,79.2,75.7,29.88,SW,215,4.0,8.0,89,0.00,CLR,OVC,0.00,0.0,WeatherDisplay:10.37,2013-09-02 07:29:00,
2013-09-02 03:34:00,79.2,75.7,29.88,South,169,5.8,10.4,89,0.00,CLR,OVC,0.00,0.0,WeatherDisplay:10.37,2013-09-02 07:34:00,
2013-09-02 03:39:00,79.3,75.4,29.88,SSW,213,2.8,8.1,88,0.00,CLR,OVC,0.00,0.0,WeatherDisplay:10.37,2013-09-02 07:39:00,
2013-09-02 03:44:00,79.3,75.4,29.88,South,178,2.7,4.0,88,0.00,CLR,OVC,0.00,0.0,WeatherDisplay:10.37,2013-09-02 07:44:00,
2013-09-02 03:49:00,79.3,75.4,29.88,SSE,150,3.4,6.0,88,0.00,CLR,OVC,0.00,0.0,WeatherDisplay:10.37,2013-09-02 07:49:00,
2013-09-02 03:54:00,79.3,75.4,29.87,WSW,246,3.2,4.0,88,0.00,CLR,OVC,0.00,0.0,WeatherDisplay:10.37,2013-09-02 07:54:00,
2013-09-02 03:59:00,79.3,75.4,29.87,SSW,201,5.7,8.1,88,0.00,CLR,OVC,0.00,0.0,WeatherDisplay:10.37,2013-09-02 07:59:00,
2013-09-02 04:04:00,79.3,75.4,29.87,SSW,192,1.9,3.5,88,0.00,CLR,OVC,0.00,0.0,WeatherDisplay:10.37,2013-09-02 08:04:00,
2013-09-02 04:09:00,79.3,75.8,29.87,South,173,2.9,4.6,89,0.00,CLR,OVC,0.00,0.0,WeatherDisplay:10.37,2013-09-02 08:09:00,
2013-09-02 04:14:00,79.3,75.8,29.87,SSE,165,1.5,3.5,89,0.00,CLR,OVC,0.00,0.0,WeatherDisplay:10.37,2013-09-02 08:14:00,
2013-09-02 04:19:00,79.2,75.7,29.87,SSE,157,3.7,3.7,89,0.00,CLR,OVC,0.00,0.0,WeatherDisplay:10.37,2013-09-02 08:19:00,
2013-09-02 04:24:00,79.2,75.7,29.87,SW,221,2.8,3.5,89,0.00,CLR,OVC,0.00,0.0,WeatherDisplay:10.37,2013-09-02 08:24:00,
2013-09-02 04:29:00,79.2,75.7,29.88,SW,233,0.4,3.5,89,0.00,CLR,OVC,0.00,0.0,WeatherDisplay:10.37,2013-09-02 08:29:00,
2013-09-02 04:34:00,79.2,75.7,29.88,SSW,206,1.4,3.5,89,0.00,CLR,OVC,0.00,0.0,WeatherDisplay:10.37,2013-09-02 08:34:00,
2013-09-02 04:39:00,79.3,75.8,29.87,South,184,1.8,5.0,89,0.00,CLR,OVC,0.00,0.0,WeatherDisplay:10.37,2013-09-02 08:39:00,
2013-09-02 04:44:00,79.4,75.9,29.87,SW,218,3.4,5.0,89,0.00,CLR,OVC,0.00,0.0,WeatherDisplay:10.37,2013-09-02 08:44:00,
2013-09-02 04:49:00,79.5,76.0,29.87,WSW,237,2.8,4.6,89,0.00,CLR,OVC,0.00,0.0,WeatherDisplay:10.37,2013-09-02 08:49:00,
2013-09-02 04:54:00,79.6,76.1,29.87,SW,229,2.5,8.1,89,0.00,CLR,OVC,0.00,0.0,WeatherDisplay:10.37,2013-09-02 08:54:00,
2013-09-02 04:59:00,79.7,76.2,29.86,SW,234,4.2,4.6,89,0.00,CLR,OVC,0.00,0.0,WeatherDisplay:10.37,2013-09-02 08:59:00,
2013-09-02 05:04:00,79.8,76.3,29.86,SW,220,3.0,5.8,89,0.00,CLR,OVC,0.00,0.0,WeatherDisplay:10.37,2013-09-02 09:04:00,
2013-09-02 05:09:00,79.9,76.4,29.87,South,191,0.3,9.2,89,0.00,CLR,OVC,0.00,0.0,WeatherDisplay:10.37,2013-09-02 09:09:00,
2013-09-02 05:14:00,79.9,76.4,29.87,WSW,238,2.0,4.0,89,0.00,CLR,OVC,0.00,0.0,WeatherDisplay:10.37,2013-09-02 09:14:00,
2013-09-02 05:19:00,79.9,76.4,29.87,SSW,209,2.0,11.5,89,0.00,CLR,OVC,0.00,0.0,WeatherDisplay:10.37,2013-09-02 09:19:00,
2013-09-02 05:24:00,79.9,76.4,29.87,SSW,203,1.0,4.6,89,0.00,CLR,OVC,0.00,0.0,WeatherDisplay:10.37,2013-09-02 09:24:00,
2013-09-02 05:29:00,79.9,76.4,29.87,South,186,0.5,4.0,89,0.00,CLR,OVC,0.00,0.0,WeatherDisplay:10.37,2013-09-02 09:29:00,
2013-09-02 05:34:00,79.9,76.4,29.87,SW,223,0.8,5.8,89,0.00,CLR,OVC,0.00,0.0,WeatherDisplay:10.37,2013-09-02 09:34:00,
2013-09-02 05:39:00,79.9,76.4,29.87,South,186,7.3,7.3,89,0.00,CLR,OVC,0.00,0.0,WeatherDisplay:10.37,2013-09-02 09:39:00,
2013-09-02 05:44:00,80.0,76.5,29.87,SW,225,3.7,4.0,89,0.00,CLR,OVC,0.00,0.0,WeatherDisplay:10.37,2013-09-02 09:44:00,
2013-09-02 05:49:00,80.0,76.5,29.86,SSW,209,2.0,4.6,89,0.00,CLR,OVC,0.00,0.0,WeatherDisplay:10.37,2013-09-02 09:49:00,
2013-09-02 05:54:00,80.0,76.5,29.87,SSW,212,2.2,4.6,89,0.00,CLR,OVC,0.00,0.0,WeatherDisplay:10.37,2013-09-02 09:54:00,
2013-09-02 05:59:00,80.0,76.5,29.87,South,181,1.7,0.0,89,0.00,CLR,OVC,0.00,0.0,WeatherDisplay:10.37,2013-09-02 09:59:00,
2013-09-02 06:04:00,79.9,76.7,29.87,SSW,209,1.9,3.5,90,0.00,CLR,OVC,0.00,0.0,WeatherDisplay:10.37,2013-09-02 10:04:00,
2013-09-02 06:09:00,79.9,76.7,29.87,South,189,0.9,3.5,90,0.00,CLR,OVC,0.00,0.0,WeatherDisplay:10.37,2013-09-02 10:09:00,
2013-09-02 06:14:00,79.8,76.6,29.88,SSW,213,0.0,0.0,90,0.00,CLR,OVC,0.00,0.0,WeatherDisplay:10.37,2013-09-02 10:14:00,
2013-09-02 06:19:00,79.6,76.4,29.87,SSW,197,2.0,3.5,90,0.00,OVC,,0.00,0.0,WeatherDisplay:10.37,2013-09-02 10:19:00,
2013-09-02 06:24:00,79.5,76.3,29.88,SW,234,2.4,3.5,90,0.00,OVC,,0.00,0.0,WeatherDisplay:10.37,2013-09-02 10:24:00,
2013-09-02 06:29:00,79.4,76.5,29.88,SSW,211,0.0,0.0,91,0.00,OVC,,0.00,0.0,WeatherDisplay:10.37,2013-09-02 10:29:00,
2013-09-02 06:34:00,79.4,76.5,29.88,WSW,244,0.4,3.5,91,0.00,OVC,,0.00,0.0,WeatherDisplay:10.37,2013-09-02 10:34:00,
2013-09-02 06:39:00,79.4,76.5,29.88,SSW,199,1.2,3.5,91,0.00,OVC,,0.00,0.0,WeatherDisplay:10.37,2013-09-02 10:39:00,
2013-09-02 06:44:00,79.4,76.5,29.88,South,190,0.6,3.5,91,0.00,OVC,,0.00,0.0,WeatherDisplay:10.37,2013-09-02 10:44:00,
2013-09-02 06:49:00,79.4,76.5,29.88,WSW,248,2.4,4.6,91,0.00,OVC,,0.00,0.0,WeatherDisplay:10.37,2013-09-02 10:49:00,
2013-09-02 06:54:00,79.4,76.5,29.88,SW,226,2.6,8.1,91,0.00,OVC,,0.00,0.0,WeatherDisplay:10.37,2013-09-02 10:54:00,
2013-09-02 06:59:00,79.4,76.5,29.88,SW,230,0.1,1.1,91,0.00,OVC,,0.00,0.0,WeatherDisplay:10.37,2013-09-02 10:59:00,
2013-09-02 07:04:00,79.3,76.4,29.88,SW,227,1.7,3.5,91,0.00,OVC,,0.00,0.0,WeatherDisplay:10.37,2013-09-02 11:04:00,
2013-09-02 07:09:00,79.3,76.4,29.89,SW,230,1.1,3.5,91,0.00,OVC,,0.00,0.0,WeatherDisplay:10.37,2013-09-02 11:09:00,
2013-09-02 07:14:00,79.3,76.4,29.89,South,173,2.7,4.6,91,0.00,OVC,,0.00,0.0,WeatherDisplay:10.37,2013-09-02 11:14:00,
2013-09-02 07:19:00,79.2,76.3,29.89,SW,226,2.4,3.5,91,0.00,OVC,,0.00,0.0,WeatherDisplay:10.37,2013-09-02 11:19:00,
2013-09-02 07:24:00,79.2,76.3,29.89,SW,235,3.1,5.8,91,0.00,OVC,,0.00,0.0,WeatherDisplay:10.37,2013-09-02 11:24:00,
2013-09-02 07:29:00,79.2,76.3,29.89,SW,226,2.4,3.5,91,0.00,OVC,,0.00,0.0,WeatherDisplay:10.37,2013-09-02 11:29:00,
2013-09-02 07:34:00,79.2,76.3,29.89,SSW,212,1.4,3.5,91,0.00,OVC,,0.00,0.0,WeatherDisplay:10.37,2013-09-02 11:34:00,
2013-09-02 07:39:00,79.2,76.7,29.89,SSW,196,2.6,5.8,92,0.00,OVC,,0.00,0.0,WeatherDisplay:10.37,2013-09-02 11:39:00,
2013-09-02 07:45:00,79.2,76.7,29.89,WSW,242,2.3,4.6,92,0.00,OVC,,0.00,0.0,WeatherDisplay:10.37,2013-09-02 11:45:00,
2013-09-02 07:50:00,79.2,76.7,29.89,SW,228,3.3,6.9,92,0.00,OVC,,0.00,0.0,WeatherDisplay:10.37,2013-09-02 11:50:00,
2013-09-02 07:55:00,79.2,76.7,29.89,SSW,198,2.4,5.8,92,0.00,OVC,,0.00,0.0,WeatherDisplay:10.37,2013-09-02 11:55:00,
2013-09-02 08:00:00,79.3,76.8,29.89,SW,215,2.7,4.6,92,0.00,OVC,,0.00,0.0,WeatherDisplay:10.37,2013-09-02 12:00:00,
2013-09-02 08:05:00,79.3,76.8,29.89,WSW,240,2.5,4.6,92,0.00,OVC,,0.00,0.0,WeatherDisplay:10.37,2013-09-02 12:05:00,
2013-09-02 08:10:00,79.6,77.1,29.89,SW,219,0.1,2.0,92,0.00,OVC,,0.00,0.0,WeatherDisplay:10.37,2013-09-02 12:10:00,
2013-09-02 08:15:00,79.9,77.0,29.89,SW,225,0.4,2.3,91,0.00,OVC,,0.00,0.0,WeatherDisplay:10.37,2013-09-02 12:15:00,
2013-09-02 08:20:00,80.4,77.2,29.89,SW,221,0.9,4.6,90,0.00,OVC,,0.00,0.0,WeatherDisplay:10.37,2013-09-02 12:20:00,
2013-09-02 08:25:00,81.0,77.4,29.89,SSW,194,3.4,9.2,89,0.00,OVC,,0.00,0.0,WeatherDisplay:10.37,2013-09-02 12:25:00,
2013-09-02 08:30:00,81.6,77.7,29.89,SW,232,2.8,8.1,88,0.00,OVC,,0.00,0.0,WeatherDisplay:10.37,2013-09-02 12:30:00,
2013-09-02 08:35:00,82.1,77.5,29.89,SSW,204,2.7,6.9,86,0.00,OVC,,0.00,0.0,WeatherDisplay:10.37,2013-09-02 12:35:00,
2013-09-02 08:40:00,82.5,77.9,29.89,South,175,2.3,5.8,86,0.00,OVC,,0.00,0.0,WeatherDisplay:10.37,2013-09-02 12:40:00,
2013-09-02 08:45:00,83.1,78.1,29.89,WSW,246,4.3,5.0,85,0.00,OVC,,0.00,0.0,WeatherDisplay:10.37,2013-09-02 12:45:00,
2013-09-02 08:50:00,83.8,78.1,29.89,South,187,2.4,6.9,83,0.00,OVC,,0.00,0.0,WeatherDisplay:10.37,2013-09-02 12:50:00,
2013-09-02 08:55:00,84.2,78.1,29.89,SW,234,4.1,5.0,82,0.00,OVC,,0.00,0.0,WeatherDisplay:10.37,2013-09-02 12:55:00,
2013-09-02 09:00:00,84.3,77.8,29.89,SSW,204,0.8,5.8,81,0.00,OVC,,0.00,0.0,WeatherDisplay:10.37,2013-09-02 13:00:00,
2013-09-02 09:05:00,84.6,78.1,29.90,SW,236,3.7,7.0,81,0.00,OVC,,0.00,0.0,WeatherDisplay:10.37,2013-09-02 13:05:00,
2013-09-02 09:10:00,84.7,77.8,29.90,South,178,5.4,11.5,80,0.00,OVC,,0.00,0.0,WeatherDisplay:10.37,2013-09-02 13:10:00,
2013-09-02 09:15:00,84.8,78.3,29.90,SW,236,2.9,5.0,81,0.00,OVC,,0.00,0.0,WeatherDisplay:10.37,2013-09-02 13:15:00,
2013-09-02 09:20:00,85.2,78.3,29.90,South,182,1.1,3.5,80,0.00,OVC,,0.00,0.0,WeatherDisplay:10.37,2013-09-02 13:20:00,
2013-09-02 09:25:00,85.5,78.2,29.90,SW,221,2.5,8.1,79,0.00,OVC,,0.00,0.0,WeatherDisplay:10.37,2013-09-02 13:25:00,
2013-09-02 09:30:00,85.6,78.3,29.90,WSW,242,2.5,6.9,79,0.00,OVC,,0.00,0.0,WeatherDisplay:10.37,2013-09-02 13:30:00,
2013-09-02 09:35:00,86.0,78.7,29.90,SSW,193,1.8,3.5,79,0.00,OVC,,0.00,0.0,WeatherDisplay:10.37,2013-09-02 13:35:00,
2013-09-02 09:40:00,86.3,78.2,29.90,SSE,160,5.2,6.9,77,0.00,OVC,,0.00,0.0,WeatherDisplay:10.37,2013-09-02 13:40:00,
2013-09-02 09:45:00,86.5,78.0,29.90,SW,232,2.1,6.9,76,0.00,OVC,,0.00,0.0,WeatherDisplay:10.37,2013-09-02 13:45:00,
2013-09-02 09:50:00,86.8,78.7,29.90,WSW,242,4.7,8.1,77,0.00,OVC,,0.00,0.0,WeatherDisplay:10.37,2013-09-02 13:50:00,
2013-09-02 09:55:00,86.9,78.0,29.90,WSW,245,4.5,6.9,75,0.00,OVC,,0.00,0.0,WeatherDisplay:10.37,2013-09-02 13:55:00,
2013-09-02 10:00:00,86.9,78.4,29.90,SW,234,1.7,3.5,76,0.00,OVC,,0.00,0.0,WeatherDisplay:10.37,2013-09-02 14:00:00,
2013-09-02 10:05:00,87.4,78.5,29.90,West,269,3.1,5.8,75,0.00,OVC,,0.00,0.0,WeatherDisplay:10.37,2013-09-02 14:05:00,
2013-09-02 10:10:00,87.9,78.2,29.90,WSW,237,2.0,6.0,73,0.00,OVC,,0.00,0.0,WeatherDisplay:10.37,2013-09-02 14:10:00,
2013-09-02 10:15:00,88.0,77.8,29.91,South,188,4.1,8.1,72,0.00,OVC,,0.00,0.0,WeatherDisplay:10.37,2013-09-02 14:15:00,
2013-09-02 10:20:00,88.0,78.7,29.90,SSW,198,1.5,5.8,74,0.00,OVC,,0.00,0.0,WeatherDisplay:10.37,2013-09-02 14:20:00,
2013-09-02 10:25:00,88.1,78.8,29.90,West,265,2.8,5.8,74,0.00,OVC,,0.00,0.0,WeatherDisplay:10.37,2013-09-02 14:25:00,
2013-09-02 10:30:00,88.4,78.6,29.90,WNW,296,1.5,4.6,73,0.00,OVC,,0.00,0.0,WeatherDisplay:10.37,2013-09-02 14:30:00,
2013-09-02 10:35:00,88.5,78.7,29.90,South,172,4.4,6.9,73,0.00,OVC,,0.00,0.0,WeatherDisplay:10.37,2013-09-02 14:35:00,
2013-09-02 10:40:00,88.8,78.6,29.90,West,277,2.0,5.8,72,0.00,OVC,,0.00,0.0,WeatherDisplay:10.37,2013-09-02 14:40:00,
2013-09-02 10:45:00,89.1,78.9,29.90,WNW,298,2.5,6.9,72,0.00,OVC,,0.00,0.0,WeatherDisplay:10.37,2013-09-02 14:45:00,
2013-09-02 10:50:00,89.3,78.2,29.90,SW,233,4.0,11.5,70,0.00,OVC,,0.00,0.0,WeatherDisplay:10.37,2013-09-02 14:50:00,
2013-09-02 10:55:00,89.2,78.6,29.90,West,266,0.4,3.5,71,0.00,OVC,,0.00,0.0,WeatherDisplay:10.37,2013-09-02 14:55:00,
2013-09-02 11:00:00,89.7,78.6,29.90,SSW,196,3.5,9.2,70,0.00,OVC,,0.00,0.0,WeatherDisplay:10.37,2013-09-02 15:00:00,
2013-09-02 11:05:00,89.9,78.4,29.90,SW,225,1.5,3.5,69,0.00,OVC,,0.00,0.0,WeatherDisplay:10.37,2013-09-02 15:05:00,
2013-09-02 11:10:00,89.8,79.1,29.90,SSW,208,1.3,3.5,71,0.00,OVC,,0.00,0.0,WeatherDisplay:10.37,2013-09-02 15:10:00,
2013-09-02 11:15:00,90.1,78.1,29.90,NW,306,4.0,15.0,68,0.00,OVC,,0.00,0.0,WeatherDisplay:10.37,2013-09-02 15:15:00,
2013-09-02 11:20:00,90.2,78.6,29.90,WSW,240,3.1,6.9,69,0.00,OVC,,0.00,0.0,WeatherDisplay:10.37,2013-09-02 15:20:00,
2013-09-02 11:25:00,90.2,78.6,29.90,WNW,286,3.4,8.1,69,0.00,OVC,,0.00,0.0,WeatherDisplay:10.37,2013-09-02 15:25:00,
2013-09-02 11:30:00,90.5,78.5,29.90,SSW,194,4.7,9.2,68,0.00,OVC,,0.00,0.0,WeatherDisplay:10.37,2013-09-02 15:30:00,
2013-09-02 11:35:00,90.7,79.1,29.89,West,264,3.2,6.9,69,0.00,OVC,,0.00,0.0,WeatherDisplay:10.37,2013-09-02 15:35:00,
2013-09-02 11:41:00,90.8,77.9,29.89,SSW,195,8.3,16.1,66,0.00,OVC,,0.00,0.0,WeatherDisplay:10.37,2013-09-02 15:41:00,
2013-09-02 11:46:00,91.1,77.7,29.89,SW,234,7.5,12.0,65,0.00,OVC,,0.00,0.0,WeatherDisplay:10.37,2013-09-02 15:46:00,
2013-09-02 11:51:00,91.1,77.7,29.89,SSW,204,7.9,12.7,65,0.00,OVC,,0.00,0.0,WeatherDisplay:10.37,2013-09-02 15:51:00,
2013-09-02 11:56:00,90.4,77.0,29.89,SW,236,4.9,6.9,65,0.00,OVC,,0.00,0.0,WeatherDisplay:10.37,2013-09-02 15:56:00,
2013-09-02 12:01:00,89.5,77.1,29.89,SW,214,5.0,8.1,67,0.00,OVC,,0.00,0.0,WeatherDisplay:10.37,2013-09-02 16:01:00,
2013-09-02 12:06:00,88.9,77.0,29.89,SW,232,0.1,1.1,68,0.00,OVC,,0.00,0.0,WeatherDisplay:10.37,2013-09-02 16:06:00,
2013-09-02 12:11:00,88.5,77.0,29.89,ESE,103,0.0,3.5,69,0.00,OVC,,0.00,0.0,WeatherDisplay:10.37,2013-09-02 16:11:00,
2013-09-02 12:16:00,88.1,77.9,29.89,East,96,0.8,2.3,72,0.00,OVC,,0.00,0.0,WeatherDisplay:10.37,2013-09-02 16:16:00,
2013-09-02 12:21:00,87.6,77.5,29.89,South,185,2.9,5.8,72,0.00,OVC,,0.00,0.0,WeatherDisplay:10.37,2013-09-02 16:21:00,
2013-09-02 12:26:00,87.2,77.5,29.89,SSW,192,1.6,3.5,73,0.00,OVC,,0.00,0.0,WeatherDisplay:10.37,2013-09-02 16:26:00,
2013-09-02 12:31:00,86.8,77.5,29.89,South,170,3.4,4.6,74,0.00,OVC,,0.00,0.0,WeatherDisplay:10.37,2013-09-02 16:31:00,
2013-09-02 12:36:00,86.7,77.8,29.89,South,180,0.3,3.5,75,0.00,OVC,,0.00,0.0,WeatherDisplay:10.37,2013-09-02 16:36:00,
2013-09-02 12:41:00,87.2,78.3,29.89,SW,220,1.7,4.0,75,0.00,OVC,,0.00,0.0,WeatherDisplay:10.37,2013-09-02 16:41:00,
2013-09-02 12:46:00,88.1,77.1,29.88,South,172,4.2,8.1,70,0.00,OVC,,0.00,0.0,WeatherDisplay:10.37,2013-09-02 16:46:00,
2013-09-02 12:51:00,89.1,78.5,29.88,ENE,67,2.7,5.8,71,0.00,OVC,,0.00,0.0,WeatherDisplay:10.37,2013-09-02 16:51:00,
2013-09-02 12:56:00,90.2,78.6,29.88,West,261,3.2,6.9,69,0.00,OVC,,0.00,0.0,WeatherDisplay:10.37,2013-09-02 16:56:00,
2013-09-02 13:01:00,91.4,79.3,29.88,SSW,193,2.4,6.9,68,0.00,OVC,,0.00,0.0,WeatherDisplay:10.37,2013-09-02 17:01:00,
2013-09-02 13:06:00,91.9,78.4,29.88,SE,143,5.6,11.5,65,0.00,OVC,,0.00,0.0,WeatherDisplay:10.37,2013-09-02 17:06:00,
2013-09-02 13:11:00,91.3,77.4,29.87,SW,227,1.9,5.8,64,0.00,OVC,,0.00,0.0,WeatherDisplay:10.37,2013-09-02 17:11:00,
2013-09-02 13:16:00,90.6,77.7,29.87,South,188,4.3,4.6,66,0.00,OVC,,0.00,0.0,WeatherDisplay:10.37,2013-09-02 17:16:00,
2013-09-02 13:21:00,89.9,77.5,29.87,SSE,155,3.6,6.9,67,0.00,OVC,,0.00,0.0,WeatherDisplay:10.37,2013-09-02 17:21:00,
2013-09-02 13:26:00,89.1,77.2,29.87,SE,146,0.5,5.8,68,0.00,OVC,,0.00,0.0,WeatherDisplay:10.37,2013-09-02 17:26:00,
2013-09-02 13:31:00,88.5,77.0,29.87,ESE,117,0.0,1.1,69,0.00,OVC,,0.00,0.0,WeatherDisplay:10.37,2013-09-02 17:31:00,
2013-09-02 13:36:00,88.0,77.0,29.87,SSW,210,0.0,1.1,70,0.00,OVC,,0.00,0.0,WeatherDisplay:10.37,2013-09-02 17:36:00,
2013-09-02 13:41:00,87.7,76.7,29.87,ESE,112,3.7,4.6,70,0.00,OVC,,0.00,0.0,WeatherDisplay:10.37,2013-09-02 17:41:00,
2013-09-02 13:46:00,87.4,76.4,29.87,SSW,195,3.9,6.9,70,0.00,OVC,,0.00,0.0,WeatherDisplay:10.37,2013-09-02 17:46:00,
2013-09-02 13:51:00,86.8,76.3,29.87,South,190,3.9,8.1,71,0.00,OVC,,0.00,0.0,WeatherDisplay:10.37,2013-09-02 17:51:00,
2013-09-02 13:56:00,86.5,77.2,29.86,SSE,153,1.2,6.9,74,0.00,OVC,,0.00,0.0,WeatherDisplay:10.37,2013-09-02 17:56:00,
2013-09-02 14:01:00,86.3,78.2,29.86,East,99,3.8,10.4,77,0.00,OVC,,0.00,0.0,WeatherDisplay:10.37,2013-09-02 18:01:00,
2013-09-02 14:06:00,86.5,78.8,29.86,SW,216,6.4,10.4,78,0.00,OVC,,0.00,0.0,WeatherDisplay:10.37,2013-09-02 18:06:00,
2013-09-02 14:11:00,87.3,79.2,29.85,SE,142,4.4,6.9,77,0.00,OVC,,0.00,0.0,WeatherDisplay:10.37,2013-09-02 18:11:00,
2013-09-02 14:16:00,88.0,79.1,29.85,SW,214,4.3,10.4,75,0.00,OVC,,0.00,0.0,WeatherDisplay:10.37,2013-09-02 18:16:00,
2013-09-02 14:21:00,88.1,78.8,29.85,SW,224,4.0,10.4,74,0.00,OVC,,0.00,0.0,WeatherDisplay:10.37,2013-09-02 18:21:00,
2013-09-02 14:26:00,88.1,79.2,29.84,SSE,163,5.0,11.5,75,0.00,OVC,,0.00,0.0,WeatherDisplay:10.37,2013-09-02 18:26:00,
2013-09-02 14:31:00,88.2,79.3,29.84,SW,216,3.0,6.0,75,0.00,OVC,,0.00,0.0,WeatherDisplay:10.37,2013-09-02 18:31:00,
2013-09-02 14:36:00,88.1,80.8,29.84,South,189,5.3,9.2,79,0.00,OVC,,0.00,0.0,WeatherDisplay:10.37,2013-09-02 18:36:00,
2013-09-02 14:41:00,87.3,80.0,29.84,SW,221,2.2,8.1,79,0.00,OVC,,0.00,0.0,WeatherDisplay:10.37,2013-09-02 18:41:00,
2013-09-02 14:46:00,87.1,81.3,29.84,SSW,192,2.0,4.0,83,0.00,OVC,,0.00,0.0,WeatherDisplay:10.37,2013-09-02 18:46:00,
2013-09-02 14:51:00,87.5,80.6,29.83,SW,229,1.0,8.1,80,0.00,OVC,,0.00,0.0,WeatherDisplay:10.37,2013-09-02 18:51:00,
2013-09-02 14:56:00,88.1,79.6,29.83,SSE,163,5.5,10.0,76,0.00,OVC,,0.00,0.0,WeatherDisplay:10.37,2013-09-02 18:56:00,
2013-09-02 15:01:00,88.5,79.6,29.83,South,188,5.0,9.0,75,0.00,OVC,,0.00,0.0,WeatherDisplay:10.37,2013-09-02 19:01:00,
2013-09-02 15:06:00,88.9,79.1,29.83,SW,216,4.3,11.5,73,0.00,OVC,,0.00,0.0,WeatherDisplay:10.37,2013-09-02 19:06:00,
2013-09-02 15:11:00,89.0,79.2,29.83,South,190,5.2,11.5,73,0.00,OVC,,0.00,0.0,WeatherDisplay:10.37,2013-09-02 19:11:00,
2013-09-02 15:16:00,89.3,78.2,29.83,SSE,159,3.3,4.6,70,0.00,OVC,,0.00,0.0,WeatherDisplay:10.37,2013-09-02 19:16:00,
2013-09-02 15:21:00,89.7,78.6,29.83,SSE,153,6.0,11.5,70,0.00,OVC,,0.00,0.0,WeatherDisplay:10.37,2013-09-02 19:21:00,
2013-09-02 15:26:00,90.1,79.0,29.83,SSW,209,8.3,12.7,70,0.00,OVC,,0.00,0.0,WeatherDisplay:10.37,2013-09-02 19:26:00,
2013-09-02 15:31:00,90.2,78.2,29.83,South,190,2.0,5.0,68,0.00,OVC,,0.00,0.0,WeatherDisplay:10.37,2013-09-02 19:31:00,
2013-09-02 15:36:00,90.6,78.6,29.82,West,261,5.2,9.2,68,0.00,OVC,,0.00,0.0,WeatherDisplay:10.37,2013-09-02 19:36:00,
2013-09-02 15:41:00,91.0,79.0,29.82,SSW,194,2.9,10.4,68,0.00,OVC,,0.00,0.0,WeatherDisplay:10.37,2013-09-02 19:41:00,
2013-09-02 15:46:00,91.2,77.8,29.82,SSW,198,6.1,9.2,65,0.00,OVC,,0.00,0.0,WeatherDisplay:10.37,2013-09-02 19:46:00,
2013-09-02 15:51:00,91.0,77.6,29.82,SSE,167,7.5,12.7,65,0.00,OVC,,0.00,0.0,WeatherDisplay:10.37,2013-09-02 19:51:00,
2013-09-02 15:56:00,91.0,78.1,29.82,SW,223,3.7,6.9,66,0.00,OVC,,0.00,0.0,WeatherDisplay:10.37,2013-09-02 19:56:00,
2013-09-02 16:01:00,91.0,78.1,29.81,WSW,246,4.5,9.2,66,0.00,OVC,,0.00,0.0,WeatherDisplay:10.37,2013-09-02 20:01:00,
2013-09-02 16:06:00,91.1,78.2,29.81,SSW,205,4.3,8.1,66,0.00,OVC,,0.00,0.0,WeatherDisplay:10.37,2013-09-02 20:06:00,
2013-09-02 16:11:00,90.9,78.0,29.81,SSW,213,6.2,13.8,66,0.00,OVC,,0.00,0.0,WeatherDisplay:10.37,2013-09-02 20:11:00,
2013-09-02 16:16:00,90.6,77.7,29.81,SSE,149,5.5,8.1,66,0.00,OVC,,0.00,0.0,WeatherDisplay:10.37,2013-09-02 20:16:00,
2013-09-02 16:21:00,90.5,78.0,29.82,SW,219,5.4,8.1,67,0.00,OVC,,0.00,0.0,WeatherDisplay:10.37,2013-09-02 20:21:00,
2013-09-02 16:26:00,89.9,77.9,29.82,SW,223,4.4,8.1,68,0.00,OVC,,0.00,0.0,WeatherDisplay:10.37,2013-09-02 20:26:00,
2013-09-02 16:31:00,89.7,78.6,29.82,SW,226,2.2,4.6,70,0.00,OVC,,0.00,0.0,WeatherDisplay:10.37,2013-09-02 20:31:00,
2013-09-02 16:36:00,89.8,78.3,29.82,SSW,205,1.9,4.6,69,0.00,OVC,,0.00,0.0,WeatherDisplay:10.37,2013-09-02 20:36:00,
2013-09-02 16:41:00,89.6,78.1,29.82,SSW,205,0.3,6.0,69,0.00,OVC,,0.00,0.0,WeatherDisplay:10.37,2013-09-02 20:41:00,
2013-09-02 16:46:00,90.0,78.5,29.82,SW,227,3.2,10.4,69,0.00,OVC,,0.00,0.0,WeatherDisplay:10.37,2013-09-02 20:46:00,
2013-09-02 16:51:00,90.3,78.7,29.81,SW,223,3.9,6.9,69,0.00,OVC,,0.00,0.0,WeatherDisplay:10.37,2013-09-02 20:51:00,
2013-09-02 16:56:00,90.5,78.5,29.81,SSW,202,3.1,4.6,68,0.00,OVC,,0.00,0.0,WeatherDisplay:10.37,2013-09-02 20:56:00,
2013-09-02 17:01:00,90.5,78.0,29.81,SW,231,2.4,8.1,67,0.00,OVC,,0.00,0.0,WeatherDisplay:10.37,2013-09-02 21:01:00,
2013-09-02 17:06:00,90.6,78.1,29.81,WSW,238,2.3,9.2,67,0.00,OVC,,0.00,0.0,WeatherDisplay:10.37,2013-09-02 21:06:00,
2013-09-02 17:11:00,90.5,78.5,29.81,SSW,193,2.6,6.9,68,0.00,OVC,,0.00,0.0,WeatherDisplay:10.37,2013-09-02 21:11:00,
2013-09-02 17:17:00,90.4,77.9,29.81,SSW,193,2.9,6.0,67,0.00,OVC,,0.00,0.0,WeatherDisplay:10.37,2013-09-02 21:17:00,
2013-09-02 17:22:00,90.3,77.8,29.81,WSW,258,5.3,10.4,67,0.00,OVC,,0.00,0.0,WeatherDisplay:10.37,2013-09-02 21:22:00,
2013-09-02 17:27:00,90.3,78.3,29.81,SSW,202,4.1,11.5,68,0.00,OVC,,0.00,0.0,WeatherDisplay:10.37,2013-09-02 21:27:00,
2013-09-02 17:32:00,90.3,78.7,29.81,SSW,200,4.5,9.2,69,0.00,OVC,,0.00,0.0,WeatherDisplay:10.37,2013-09-02 21:32:00,
2013-09-02 17:37:00,90.1,78.1,29.82,SW,222,4.8,9.2,68,0.00,OVC,,0.00,0.0,WeatherDisplay:10.37,2013-09-02 21:37:00,
2013-09-02 17:42:00,89.9,78.4,29.82,SSW,196,4.0,8.1,69,0.00,OVC,,0.00,0.0,WeatherDisplay:10.37,2013-09-02 21:42:00,
2013-09-02 17:47:00,89.5,78.0,29.81,South,169,1.8,5.8,69,0.00,OVC,,0.00,0.0,WeatherDisplay:10.37,2013-09-02 21:47:00,
2013-09-02 17:52:00,89.4,78.3,29.81,SSE,147,2.6,4.0,70,0.00,OVC,,0.00,0.0,WeatherDisplay:10.37,2013-09-02 21:52:00,
2013-09-02 17:57:00,89.1,78.0,29.81,SSW,213,6.2,9.2,70,0.00,OVC,,0.00,0.0,WeatherDisplay:10.37,2013-09-02 21:57:00,
2013-09-02 18:02:00,88.8,78.2,29.82,SSW,197,5.7,10.4,71,0.00,OVC,,0.00,0.0,WeatherDisplay:10.37,2013-09-02 22:02:00,
2013-09-02 18:07:00,88.3,77.7,29.82,SSW,193,3.4,11.5,71,0.00,OVC,,0.00,0.0,WeatherDisplay:10.37,2013-09-02 22:07:00,
2013-09-02 18:12:00,87.7,77.5,29.81,WSW,238,3.5,8.1,72,0.00,OVC,,0.00,0.0,WeatherDisplay:10.37,2013-09-02 22:12:00,
2013-09-02 18:17:00,87.1,77.8,29.81,South,187,1.2,4.6,74,0.00,OVC,,0.00,0.0,WeatherDisplay:10.37,2013-09-02 22:17:00,
2013-09-02 18:22:00,86.6,77.7,29.81,WSW,238,2.8,7.0,75,0.00,OVC,,0.00,0.0,WeatherDisplay:10.37,2013-09-02 22:22:00,
2013-09-02 18:27:00,86.1,77.6,29.81,WSW,258,5.7,9.2,76,0.00,OVC,,0.00,0.0,WeatherDisplay:10.37,2013-09-02 22:27:00,
2013-09-02 18:32:00,85.5,77.5,29.82,South,175,5.4,9.2,77,0.00,OVC,,0.00,0.0,WeatherDisplay:10.37,2013-09-02 22:32:00,
2013-09-02 18:37:00,85.1,77.5,29.82,SW,230,1.7,9.2,78,0.00,OVC,,0.00,0.0,WeatherDisplay:10.37,2013-09-02 22:37:00,
2013-09-02 18:42:00,84.7,77.5,29.82,South,189,3.2,4.6,79,0.00,OVC,,0.00,0.0,WeatherDisplay:10.37,2013-09-02 22:42:00,
2013-09-02 18:47:00,84.4,77.2,29.82,SW,235,7.7,10.4,79,0.00,OVC,,0.00,0.0,WeatherDisplay:10.37,2013-09-02 22:47:00,
2013-09-02 18:52:00,84.1,77.3,29.83,SSW,192,5.9,9.2,80,0.00,OVC,,0.00,0.0,WeatherDisplay:10.37,2013-09-02 22:52:00,
2013-09-02 18:57:00,83.8,77.3,29.83,South,188,5.8,9.2,81,0.00,OVC,,0.00,0.0,WeatherDisplay:10.37,2013-09-02 22:57:00,
2013-09-02 19:02:00,83.6,77.1,29.83,SSW,205,0.5,1.1,81,0.00,OVC,,0.00,0.0,WeatherDisplay:10.37,2013-09-02 23:02:00,
2013-09-02 19:07:00,83.4,77.3,29.83,SW,234,1.8,9.2,82,0.00,OVC,,0.00,0.0,WeatherDisplay:10.37,2013-09-02 23:07:00,
2013-09-02 19:12:00,83.3,77.2,29.84,SSW,198,4.4,8.1,82,0.00,OVC,,0.00,0.0,WeatherDisplay:10.37,2013-09-02 23:12:00,
2013-09-02 19:17:00,83.0,77.3,29.83,South,188,5.7,11.5,83,0.00,OVC,,0.00,0.0,WeatherDisplay:10.37,2013-09-02 23:17:00,
2013-09-02 19:22:00,82.7,77.0,29.84,SW,218,3.1,5.8,83,0.00,OVC,,0.00,0.0,WeatherDisplay:10.37,2013-09-02 23:22:00,
2013-09-02 19:27:00,82.6,77.3,29.84,SSW,203,5.7,11.5,84,0.00,OVC,,0.00,0.0,WeatherDisplay:10.37,2013-09-02 23:27:00,
2013-09-02 19:32:00,82.4,77.4,29.85,WSW,240,3.2,11.5,85,0.00,OVC,,0.00,0.0,WeatherDisplay:10.37,2013-09-02 23:32:00,
2013-09-02 19:37:00,82.2,77.6,29.85,West,271,1.0,4.6,86,0.00,OVC,,0.00,0.0,WeatherDisplay:10.37,2013-09-02 23:37:00,
2013-09-02 19:42:00,82.1,77.5,29.85,SW,229,6.2,6.9,86,0.00,OVC,,0.00,0.0,WeatherDisplay:10.37,2013-09-02 23:42:00,
2013-09-02 19:47:00,81.9,77.3,29.84,SW,214,2.9,6.9,86,0.00,OVC,,0.00,0.0,WeatherDisplay:10.37,2013-09-02 23:47:00,
2013-09-02 19:52:00,81.7,77.5,29.85,SSW,207,4.0,8.1,87,0.00,OVC,,0.00,0.0,WeatherDisplay:10.37,2013-09-02 23:52:00,
2013-09-02 19:57:00,81.3,77.7,29.85,SSW,213,2.6,5.8,89,0.01,RA,OVC,0.01,0.0,WeatherDisplay:10.37,2013-09-02 23:57:00,
2013-09-02 20:02:00,80.8,77.6,29.85,SW,218,2.7,5.8,90,0.01,RA,OVC,0.01,0.0,WeatherDisplay:10.37,2013-09-03 00:02:00,
2013-09-02 20:07:00,80.5,77.3,29.85,SSW,192,1.7,3.5,90,0.01,CLR,OVC,0.01,0.0,WeatherDisplay:10.37,2013-09-03 00:07:00,
2013-09-02 20:12:00,80.2,77.3,29.85,SW,226,0.6,4.0,91,0.01,CLR,OVC,0.01,0.0,WeatherDisplay:10.37,2013-09-03 00:12:00,
2013-09-02 20:17:00,80.0,77.1,29.85,SW,223,0.8,3.5,91,0.01,CLR,OVC,0.01,0.0,WeatherDisplay:10.37,2013-09-03 00:17:00,
2013-09-02 20:22:00,79.9,77.0,29.85,SSW,212,1.1,3.5,91,0.01,CLR,OVC,0.01,0.0,WeatherDisplay:10.37,2013-09-03 00:22:00,
2013-09-02 20:27:00,79.9,77.0,29.85,SW,225,3.8,5.8,91,0.01,CLR,OVC,0.01,0.0,WeatherDisplay:10.37,2013-09-03 00:27:00,
2013-09-02 20:32:00,79.9,77.0,29.86,SSW,212,3.7,6.9,91,0.02,RA,OVC,0.02,0.0,WeatherDisplay:10.37,2013-09-03 00:32:00,
2013-09-02 20:37:00,80.0,77.1,29.85,SW,221,4.1,8.1,91,0.02,RA,OVC,0.02,0.0,WeatherDisplay:10.37,2013-09-03 00:37:00,
2013-09-02 20:42:00,80.0,77.1,29.85,South,175,2.1,4.6,91,0.02,,OVC,0.02,0.0,WeatherDisplay:10.37,2013-09-03 00:42:00,
2013-09-02 20:47:00,80.1,77.2,29.85,South,180,3.7,6.9,91,0.02,CLR,OVC,0.02,0.0,WeatherDisplay:10.37,2013-09-03 00:47:00,
2013-09-02 20:52:00,80.2,77.3,29.85,South,169,5.0,5.0,91,0.02,CLR,OVC,0.02,0.0,WeatherDisplay:10.37,2013-09-03 00:52:00,
2013-09-02 20:57:00,80.3,77.1,29.85,SW,217,3.6,5.0,90,0.01,CLR,OVC,0.02,0.0,WeatherDisplay:10.37,2013-09-03 00:57:00,
2013-09-02 21:02:00,80.3,77.1,29.86,SSW,199,2.9,6.9,90,0.01,CLR,OVC,0.02,0.0,WeatherDisplay:10.37,2013-09-03 01:02:00,
2013-09-02 21:07:00,80.4,77.2,29.86,SSW,210,4.0,5.8,90,0.01,CLR,OVC,0.02,0.0,WeatherDisplay:10.37,2013-09-03 01:07:00,
2013-09-02 21:12:00,80.4,77.2,29.86,SW,228,2.8,5.0,90,0.01,CLR,OVC,0.02,0.0,WeatherDisplay:10.37,2013-09-03 01:12:00,
2013-09-02 21:17:00,80.4,77.2,29.86,SSE,163,5.1,8.1,90,0.01,CLR,OVC,0.02,0.0,WeatherDisplay:10.37,2013-09-03 01:17:00,
2013-09-02 21:23:00,80.4,77.2,29.86,SW,215,5.4,9.2,90,0.01,CLR,OVC,0.02,0.0,WeatherDisplay:10.37,2013-09-03 01:23:00,
2013-09-02 21:28:00,80.4,77.2,29.86,SSW,209,3.8,8.1,90,0.01,CLR,OVC,0.02,0.0,WeatherDisplay:10.37,2013-09-03 01:28:00,
2013-09-02 21:33:00,80.3,77.1,29.86,SW,219,4.9,8.1,90,0.00,CLR,OVC,0.02,0.0,WeatherDisplay:10.37,2013-09-03 01:33:00,
2013-09-02 21:38:00,80.3,77.1,29.86,SSW,211,4.4,8.1,90,0.00,CLR,OVC,0.02,0.0,WeatherDisplay:10.37,2013-09-03 01:38:00,
2013-09-02 21:43:00,80.3,77.1,29.86,SSW,206,3.9,5.0,90,0.00,CLR,OVC,0.02,0.0,WeatherDisplay:10.37,2013-09-03 01:43:00,
2013-09-02 21:48:00,80.4,77.2,29.86,SSW,205,4.6,8.1,90,0.00,CLR,OVC,0.02,0.0,WeatherDisplay:10.37,2013-09-03 01:48:00,
2013-09-02 21:53:00,80.4,77.2,29.86,SSW,202,3.8,9.2,90,0.00,CLR,OVC,0.02,0.0,WeatherDisplay:10.37,2013-09-03 01:53:00,
2013-09-02 21:58:00,80.3,77.1,29.85,SSW,209,3.9,9.2,90,0.00,CLR,OVC,0.02,0.0,WeatherDisplay:10.37,2013-09-03 01:58:00,
2013-09-02 22:03:00,80.3,77.1,29.86,SW,229,3.8,7.0,90,0.00,CLR,OVC,0.02,0.0,WeatherDisplay:10.37,2013-09-03 02:03:00,
2013-09-02 22:08:00,80.3,77.1,29.86,SW,236,3.4,6.9,90,0.00,CLR,OVC,0.02,0.0,WeatherDisplay:10.37,2013-09-03 02:08:00,
2013-09-02 22:13:00,80.3,77.1,29.86,South,187,2.9,4.6,90,0.00,CLR,OVC,0.02,0.0,WeatherDisplay:10.37,2013-09-03 02:13:00,
2013-09-02 22:18:00,80.3,77.1,29.86,South,187,4.0,10.4,90,0.00,CLR,OVC,0.02,0.0,WeatherDisplay:10.37,2013-09-03 02:18:00,
2013-09-02 22:23:00,80.2,77.0,29.87,SSW,198,4.9,8.1,90,0.00,CLR,OVC,0.02,0.0,WeatherDisplay:10.37,2013-09-03 02:23:00,
2013-09-02 22:28:00,80.2,77.0,29.87,SW,233,6.0,11.5,90,0.00,CLR,OVC,0.02,0.0,WeatherDisplay:10.37,2013-09-03 02:28:00,
2013-09-02 22:33:00,80.2,77.0,29.87,SW,233,3.2,6.9,90,0.00,CLR,OVC,0.02,0.0,WeatherDisplay:10.37,2013-09-03 02:33:00,
2013-09-02 22:38:00,80.2,77.0,29.87,West,261,5.5,10.4,90,0.00,CLR,OVC,0.02,0.0,WeatherDisplay:10.37,2013-09-03 02:38:00,
2013-09-02 22:43:00,80.2,77.0,29.87,SSW,200,3.3,4.6,90,0.00,CLR,OVC,0.02,0.0,WeatherDisplay:10.37,2013-09-03 02:43:00,
2013-09-02 22:48:00,80.2,77.0,29.87,South,182,6.9,10.4,90,0.00,CLR,OVC,0.02,0.0,WeatherDisplay:10.37,2013-09-03 02:48:00,
2013-09-02 22:53:00,80.1,76.9,29.87,South,171,4.4,11.5,90,0.00,CLR,OVC,0.02,0.0,WeatherDisplay:10.37,2013-09-03 02:53:00,
2013-09-02 22:58:00,80.1,76.9,29.88,SW,217,3.6,8.1,90,0.00,CLR,OVC,0.02,0.0,WeatherDisplay:10.37,2013-09-03 02:58:00,
2013-09-02 23:03:00,80.0,76.8,29.87,SW,218,3.8,5.8,90,0.00,CLR,OVC,0.02,0.0,WeatherDisplay:10.37,2013-09-03 03:03:00,
2013-09-02 23:08:00,80.0,76.8,29.87,SW,216,6.5,6.5,90,0.00,CLR,OVC,0.02,0.0,WeatherDisplay:10.37,2013-09-03 03:08:00,
2013-09-02 23:13:00,80.0,76.8,29.87,SSE,166,5.0,9.2,90,0.00,CLR,OVC,0.02,0.0,WeatherDisplay:10.37,2013-09-03 03:13:00,
2013-09-02 23:18:00,80.0,76.8,29.87,SSW,211,2.5,9.2,90,0.00,CLR,OVC,0.02,0.0,WeatherDisplay:10.37,2013-09-03 03:18:00,
2013-09-02 23:23:00,80.0,77.1,29.87,SW,236,3.8,11.5,91,0.00,CLR,OVC,0.02,0.0,WeatherDisplay:10.37,2013-09-03 03:23:00,
2013-09-02 23:28:00,80.0,77.1,29.87,SSW,198,3.3,10.4,91,0.00,CLR,OVC,0.02,0.0,WeatherDisplay:10.37,2013-09-03 03:28:00,
2013-09-02 23:33:00,80.0,77.1,29.87,WSW,239,4.2,6.9,91,0.00,CLR,OVC,0.02,0.0,WeatherDisplay:10.37,2013-09-03 03:33:00,
2013-09-02 23:38:00,80.0,77.1,29.87,SSW,207,1.2,4.6,91,0.00,CLR,OVC,0.02,0.0,WeatherDisplay:10.37,2013-09-03 03:38:00,
2013-09-02 23:43:00,80.0,77.1,29.87,SW,225,4.1,9.2,91,0.00,CLR,OVC,0.02,0.0,WeatherDisplay:10.37,2013-09-03 03:43:00,
2013-09-02 23:48:00,80.0,77.1,29.87,WSW,246,1.8,5.8,91,0.00,CLR,OVC,0.02,0.0,WeatherDisplay:10.37,2013-09-03 03:48:00,
2013-09-02 23:53:00,80.0,77.1,29.87,SSW,196,5.2,6.9,91,0.00,CLR,OVC,0.02,0.0,WeatherDisplay:10.37,2013-09-03 03:53:00,
2013-09-02 23:58:00,80.0,77.1,29.87,SW,217,3.3,9.0,91,0.00,CLR,OVC,0.02,0.0,WeatherDisplay:10.37,2013-09-03 03:58:00,